User: anonymous   Login
Location: Shepherdstown, WV
(39.4326°N, 77.8042°W)
Time: 08:23:11
(UTC-04:00)
Language:

Tiangong - Orbit

View from above orbital plane
View from above orbital plane
View from above satellite
View from above satellite

Ground track
Ground track

The orbit data is extracted from the following two-line orbital elements,

1 48274U 21035A   21206.83900822  .00009219  00000-0  10341-3 0  9992
2 48274  41.4702  47.2865 0008591 237.4154 137.4208 15.62688283 13745
Epoch (UTC): 25 July 2021 20:08:10
Eccentricity: 0.0008591
inclination: 41.4702°
perigee height: 374 km
apogee height: 386 km
right ascension of ascending node: 47.2865°
argument of perigee: 237.4154°
revolutions per day: 15.62688283
mean anomaly at epoch: 137.4208°
orbit number at epoch: 1374

The dashed part of the orbit path shows where the satellite is in the earth's shadow,  

DLR